RH
92 87 88 95 100 100 100 98 97 96 95 92 87 88 90 94 97 79 83 79 91 92 93 87 89 83 64 77 74 47 46 48 54 57 64 74 81 74 87 84 72 81 72 75 82 75 80
100 95 90 88 94 100 100 100 93 96 96 95 91 84 88 95 85 71 83 83 86 96 92 85 91 86 74 85 45 42 46 51 58 55 62 69 77 66 91 93 78 68 64 70 88 76 72
99 100 100 92 89 94 100 100 98 91 91 95 93 88 84 92 90 82 79 83 84 96 97 93 85 87 80 74 46 44 46 61 60 56 72 87 79 86 81 80 66 65 79 68 82 85 81
98 98 98 99 96 92 98 100 100 89 86 96 94 87 91 88 75 75 81 82 94 96 96 95 84 84 89 47 43 44 44 65 64 63 74 79 87 83 91 82 79 71 78 96 87 89 89
88 98 97 93 98 95 94 100 100 93 95 97 95 89 89 80 73 76 78 87 97 96 94 82 77 80 78 47 46 42 43 54 70 80 78 83 94 91 83 94 88 76 92 93 99 82 88
86 86 94 94 91 100 97 100 100 98 98 97 96 88 80 75 75 79 85 87 71 67 74 72 70 71 52 53 45 43 51 51 66 74 79 83 90 96 95 98 89 93 84 70 92 89 82
85 87 85 91 92 95 97 96 100 98 97 96 96 86 82 77 81 77 87 80 78 78 77 66 60 61 51 46 46 57 58 60 65 76 92 92 93 99 97 93 85 64 67 73 77 82 73
80 87 89 83 95 89 100 90 100 100 96 97 92 85 80 78 78 77 81 89 64 60 73 56 52 53 48 52 64 64 58 70 75 100 97 99 96 84 90 82 75 63 66 68 69 66 69
76 85 90 87 92 95 99 90 100 100 100 98 93 83 80 76 78 78 77 73 59 58 79 64 54 57 57 62 79 80 75 79 95 100 100 99 89 75 83 85 75 67 66 64 80 79 74
80 85 90 91 87 94 100 98 100 99 99 97 87 85 81 81 78 72 77 62 58 64 92 81 67 60 62 74 83 66 74 81 96 100 96 98 81 77 90 74 57 70 57 53 76 90 100
83 86 87 91 95 94 99 98 99 99 98 90 83 88 80 80 81 76 63 63 64 60 75 58 70 52 60 77 80 65 74 84 96 97 93 98 87 84 82 77 60 68 61 61 72 82 95
74 92 95 94 94 99 100 100 100 99 91 86 89 88 82 82 85 70 65 65 71 79 86 78 72 68 76 74 75 78 84 88 91 92 84 93 81 89 91 77 68 68 72 75 81 90 96
80 84 98 100 87 98 93 100 100 99 91 85 90 84 84 78 80 68 68 78 86 87 64 75 73 64 68 87 83 85 84 89 96 87 96 91 95 85 79 77 70 69 82 99 98 98 77
81 95 99 76 98 94 99 100 100 97 85 77 82 80 86 85 69 71 75 84 87 75 84 68 71 67 74 64 61 82 83 88 77 80 90 94 96 86 76 89 93 86 81 85 90 89 69
86 97 97 98 100 96 99 100 100 88 80 78 82 93 87 80 74 74 81 94 84 85 78 84 74 81 72 64 68 61 71 84 80 81 90 92 92 75 77 79 82 81 76 51 73 69 76
88 98 98 100 98 97 99 100 100 83 73 88 86 92 92 79 73 76 92 85 88 73 73 69 82 71 66 60 63 64 66 69 72 71 70 74 98 80 78 67 62 58 53 66 83 70 64
88 97 99 100 100 97 100 100 97 88 82 78 80 94 96 80 82 92 97 90 77 64 62 68 74 79 58 61 62 60 78 69 69 71 70 66 76 85 75 82 86 72 67 68 66 70 65
75 96 96 100 93 98 100 100 90 85 80 74 87 99 99 90 98 96 95 76 60 67 61 66 66 71 54 56 53 62 82 79 67 66 70 69 78 89 80 67 65 66 75 68 83 68 79
70 95 100 85 88 100 100 96 77 83 88 80 98 97 94 96 90 96 85 70 65 71 70 71 70 56 49 56 66 70 78 71 66 69 73 63 86 89 80 66 64 72 68 69 72 78 82
74 94 98 97 100 100 100 92 83 92 72 62 92 96 98 96 91 91 83 80 80 62 66 58 54 49 51 54 54 70 76 69 64 63 59 60 76 69 86 71 75 78 71 69 76 90 76
78 92 96 99 97 100 99 88 84 80 70 64 83 94 79 96 98 93 75 78 82 76 60 53 56 53 53 62 59 75 78 74 66 65 57 68 85 75 64 59 76 76 72 71 84 74 81
84 95 99 96 100 100 99 87 87 76 84 70 84 95 85 90 83 94 86 82 74 70 67 65 64 56 54 67 61 70 75 74 73 67 61 66 89 77 75 61 62 67 66 68 72 69 74
90 90 98 98 95 99 97 90 83 79 94 75 65 61 74 83 91 90 82 75 71 72 68 63 59 72 70 66 59 59 60 57 58 71 71 70 78 83 88 67 59 70 57 62 64 61 63
95 88 88 98 98 94 96 94 93 75 78 48 52 62 72 84 85 79 69 60 74 68 78 75 65 72 70 62 60 56 52 53 55 55 60 75 76 82 90 70 87 53 43 44 59 57 54
94 92 92 94 100 99 95 85 83 87 75 44 51 56 66 83 75 67 72 79 75 76 75 82 74 71 69 59 71 73 76 61 58 63 62 61 75 81 86 87 66 49 46 48 45 48 55
93 94 97 99 99 99 96 88 97 96 76 41 48 48 63 70 69 60 75 72 86 85 79 80 57 60 70 75 74 79 88 71 79 70 64 66 71 76 90 87 82 50 51 46 44 69 48
96 92 99 87 98 99 95 79 93 76 76 39 46 50 51 74 73 62 74 72 74 82 89 78 66 76 70 85 83 83 73 60 84 80 79 81 82 86 86 84 80 59 52 44 60 52 49
96 88 96 97 99 99 98 97 90 77 86 40 50 62 51 85 80 74 69 61 64 80 89 76 76 76 88 81 78 81 75 64 59 64 75 76 87 90 88 89 91 50 47 51 45 55 51
94 94 100 94 98 100 99 92 81 78 86 46 62 53 53 81 82 78 76 72 66 66 84 88 83 90 92 90 88 88 82 78 68 66 61 66 66 69 74 75 59 58 52 59 63 62 60
Wind_Speed
34 32 31 32 33 29 26 19 15 14 11 11 10 10 13 13 12 13 11 12 12 10 6 6 7 9 3 2 5 1 8 9 7 10 7 14 8 7 9 6 8 15 13 13 9 3 2
30 37 35 32 33 36 31 23 17 15 13 10 10 10 11 12 12 14 12 10 11 9 7 5 6 7 1 3 1 5 10 8 8 9 5 12 6 12 6 4 14 7 14 15 7 2 2
31 28 36 37 34 32 36 27 20 16 14 10 9 9 11 11 11 13 11 12 10 9 8 6 5 5 2 7 4 7 8 3 6 7 2 8 3 7 10 6 6 6 12 12 11 5 2
34 34 32 32 37 34 28 30 24 17 14 11 9 8 9 9 12 12 13 11 9 8 9 6 4 4 5 7 3 4 6 3 4 1 3 3 3 6 6 3 1 14 8 8 13 15 2
35 36 36 36 33 35 29 30 28 19 14 10 9 9 7 8 11 12 12 9 7 6 4 3 3 3 6 6 2 10 5 5 6 1 3 6 3 3 6 3 6 10 8 9 6 14 6
36 35 38 38 38 33 31 28 30 20 15 10 9 8 6 8 9 10 8 7 3 3 1 2 6 3 4 2 4 8 5 7 4 4 2 3 3 1 2 2 11 8 9 9 8 5 13
38 38 41 38 40 36 31 27 30 22 15 11 10 7 6 6 7 7 7 1 3 2 1 3 3 4 4 9 6 1 7 6 3 1 3 2 3 5 7 8 1 11 13 10 11 10 5
41 44 41 42 41 34 34 28 33 22 16 13 9 7 5 4 4 3 3 2 3 1 2 6 5 4 4 4 3 2 14 3 1 3 3 3 2 8 5 8 4 8 14 7 11 15 5
41 43 41 43 43 36 35 27 33 22 17 13 10 8 5 3 3 5 6 3 2 2 2 1 1 2 1 4 3 4 4 4 2 2 2 1 3 10 5 4 4 5 13 11 9 7 6
44 43 44 46 44 41 37 26 32 23 18 15 11 9 6 6 4 6 4 6 4 2 4 8 3 2 1 2 3 4 2 3 1 2 2 4 4 9 9 2 4 6 7 13 15 7 2
44 47 45 47 41 44 38 29 32 23 18 15 12 11 10 12 5 4 6 5 5 2 5 5 6 1 2 1 4 1 3 2 4 5 4 1 9 9 4 4 3 4 10 11 17 9 5
42 44 42 45 44 43 40 32 33 25 21 17 14 12 14 10 5 4 6 7 3 5 1 5 3 4 1 3 1 4 1 1 2 4 11 7 2 4 4 4 4 7 10 11 9 3 1
40 45 45 41 52 49 46 37 35 26 22 18 15 16 18 11 5 10 10 4 4 5 2 4 3 3 3 3 2 2 4 4 3 5 8 6 6 6 5 6 10 12 6 3 2 2 3
40 42 47 46 64 39 38 42 36 29 23 19 18 23 12 7 13 12 6 4 6 3 4 1 3 5 1 3 2 2 3 4 5 5 3 3 4 6 7 4 4 4 4 3 4 4 3
37 44 48 59 52 30 33 43 37 31 26 23 29 17 10 12 12 10 3 4 7 6 6 6 1 2 4 1 2 3 2 2 2 4 5 4 5 4 3 3 2 3 4 3 6 4 4
37 45 54 57 47 28 37 41 37 33 32 38 20 10 6 12 11 6 3 3 3 5 6 4 4 4 1 1 2 3 2 3 3 4 2 3 4 2 3 0 1 2 2 3 4 3 2
37 46 51 56 32 24 47 44 38 36 43 31 17 4 7 11 8 2 3 5 4 4 5 6 3 3 3 3 2 2 3 5 5 6 6 3 4 4 4 4 2 4 3 4 3 3 4
41 46 59 27 27 23 50 46 41 41 44 25 7 4 7 11 2 2 3 5 4 5 2 2 2 2 5 4 2 4 3 3 2 1 4 3 3 3 1 3 1 1 2 3 4 3 1
40 42 52 29 25 46 51 47 44 49 43 17 4 3 2 2 4 3 4 4 3 4 5 5 3 3 0 2 4 4 3 2 4 5 2 1 2 3 7 5 4 2 1 3 4 3 2
37 42 45 40 25 53 52 47 47 51 37 11 4 5 2 1 1 3 4 4 4 3 3 3 2 3 3 2 4 4 2 0 2 2 2 3 3 5 5 5 2 2 2 3 4 3 3
32 38 42 41 29 51 48 46 47 52 31 7 2 4 4 7 5 4 2 6 6 5 1 3 1 2 2 2 3 4 3 3 2 3 2 3 3 2 3 3 4 3 3 3 5 5 4
28 30 32 23 18 43 43 43 44 51 28 4 4 4 2 4 4 7 4 7 7 4 5 3 4 4 4 4 2 4 5 2 4 1 2 2 1 2 3 3 4 3 5 6 6 3 7
27 30 29 24 3 28 37 39 40 47 21 3 2 3 4 4 5 5 4 7 7 8 3 4 6 6 5 5 4 3 1 2 4 6 2 2 3 2 3 4 5 5 5 4 2 3 4
24 24 28 30 22 34 30 32 32 45 22 3 3 4 4 3 4 5 6 2 9 4 6 3 3 5 4 3 4 3 2 5 5 4 2 4 3 2 1 4 2 5 4 3 5 6 5
21 20 20 20 29 33 33 31 32 36 19 1 3 2 3 3 2 2 6 6 6 7 4 4 3 1 3 3 4 4 4 3 2 4 5 2 4 2 2 2 5 1 2 1 1 5 1
22 19 17 11 11 27 29 30 26 32 20 2 4 4 4 5 1 2 4 4 4 4 3 3 3 1 2 3 3 3 4 4 3 1 4 4 5 3 2 2 4 5 3 2 2 4 4
22 20 12 10 19 28 29 30 21 24 23 6 3 6 6 4 4 3 3 4 3 4 4 3 2 1 2 2 2 2 3 5 4 4 3 2 2 4 2 2 6 5 4 2 1 5 2
21 20 17 10 26 28 27 23 19 21 25 9 4 4 4 3 3 5 4 3 3 3 4 3 3 3 2 2 3 3 2 3 2 4 5 5 5 3 2 2 5 1 1 3 3 5 5
21 24 15 24 29 28 24 22 18 19 24 11 4 13 17 6 3 14 19 14 6 1 5 3 3 2 2 4 1 2 1 1 3 2 3 1 4 3 6 4 1 3 1 1 3 3 5
Wind_Direction
300 300 296 292 282 275 270 265 265 266 268 282 297 309 309 318 307 321 310 321 313 300 299 310 330 337 355 331 254 208 302 304 291 288 246 237 215 206 216 198 242 228 199 218 275 164 103
307 295 298 300 294 278 265 260 258 259 262 269 288 301 307 315 308 314 306 317 303 310 303 300 322 331 349 286 304 337 323 282 291 313 315 204 221 198 302 263 198 205 223 206 200 207 88
326 321 294 297 300 293 269 255 255 254 261 257 273 293 301 308 304 315 303 315 299 308 309 298 301 322 273 247 262 318 332 299 321 321 88 40 246 177 192 216 238 246 202 191 205 222 126
318 319 324 304 294 293 293 254 253 252 254 252 266 283 295 302 309 306 310 308 302 293 291 277 276 278 248 283 283 331 331 277 291 340 214 173 273 212 234 324 196 207 208 168 192 190 84
321 312 312 314 308 293 289 262 250 250 241 243 253 271 291 300 306 308 307 305 309 313 282 257 259 190 273 310 257 314 287 273 222 160 222 266 156 194 127 196 151 184 186 172 169 154 119
319 315 307 305 307 295 286 270 246 239 234 235 244 261 279 298 305 307 302 302 289 314 332 227 271 314 282 6 300 299 311 307 232 262 199 33 142 76 58 239 173 165 172 177 149 145 127
317 315 312 304 299 301 277 286 237 234 229 223 235 248 264 295 304 291 292 123 57 35 218 223 242 247 281 319 295 158 345 306 190 285 351 275 161 191 153 234 330 155 151 140 144 162 112
314 317 311 307 301 293 280 277 237 229 218 213 222 232 248 268 286 263 190 132 147 105 248 231 258 269 272 339 286 1 352 317 313 304 270 226 185 146 190 261 289 164 145 126 130 141 93
315 313 309 305 300 298 289 266 236 219 215 204 205 215 221 198 199 224 203 167 141 195 138 271 238 288 317 29 326 298 353 315 231 249 217 206 122 144 163 217 204 105 139 123 109 145 25
313 313 308 308 299 295 291 251 234 212 204 201 200 197 188 170 153 175 196 181 207 184 72 328 349 275 157 130 269 248 238 250 39 330 122 16 325 141 183 197 100 88 124 138 131 127 92
308 311 306 304 304 296 294 238 226 199 198 200 193 184 176 175 144 187 149 159 162 97 55 290 304 261 302 192 295 277 238 264 353 23 189 80 108 149 57 36 25 108 128 136 137 120 144
305 309 305 301 301 291 284 226 218 193 193 193 189 175 166 174 205 162 153 136 109 51 311 319 291 300 42 347 313 311 318 155 253 18 57 48 358 46 3 24 54 129 93 80 69 62 155
304 306 309 301 303 298 288 216 201 184 184 183 185 167 167 161 169 156 144 88 55 93 260 271 263 297 244 246 256 321 338 11 30 54 28 21 21 324 10 47 30 114 83 104 153 143 200
308 308 310 301 305 282 277 208 187 176 176 176 170 153 162 168 146 156 126 63 79 201 185 271 272 285 194 322 297 160 334 27 7 57 69 77 56 7 342 47 126 66 118 163 143 173 160
309 310 305 303 307 274 262 199 180 167 172 162 148 142 148 155 155 156 91 71 180 196 174 165 280 298 317 30 108 6 31 76 327 28 118 105 46 329 72 72 163 233 173 218 103 30 73
308 303 302 302 298 280 206 189 168 164 163 153 135 130 137 152 154 130 82 203 162 169 133 136 191 202 185 271 57 41 47 346 351 31 337 165 87 326 306 3 226 169 234 40 14 119 199
309 305 303 307 291 295 187 170 160 162 158 148 126 104 163 153 151 67 177 211 173 196 169 165 183 157 234 199 207 63 28 350 11 349 14 65 63 314 11 20 21 6 19 45 107 108 152
313 314 315 308 292 266 174 164 159 161 156 149 119 110 154 157 142 152 188 176 144 159 127 124 152 222 183 196 95 64 95 68 48 64 39 19 103 79 109 290 248 128 69 82 108 298 40
314 316 322 316 296 175 168 162 161 164 163 137 98 97 103 142 177 226 253 131 127 147 182 165 215 225 42 143 92 95 79 355 44 47 76 354 39 61 347 353 8 10 283 108 102 68 230
319 320 327 323 286 173 164 160 164 168 159 128 112 124 133 226 243 204 159 153 126 160 152 166 160 58 55 60 53 128 109 155 60 73 75 115 105 146 172 209 180 289 260 171 123 119 190
318 324 326 328 172 165 162 162 167 168 165 142 109 173 173 179 219 214 210 149 132 139 122 156 66 136 158 107 82 102 56 44 13 6 51 86 96 96 208 191 138 206 255 214 191 200 168
315 324 327 336 171 162 161 167 170 167 173 101 130 136 86 159 145 161 228 183 152 134 134 186 157 151 118 123 152 138 123 178 204 353 58 34 154 103 11 353 196 258 245 233 246 226 252
316 324 332 336 204 178 164 171 172 173 173 124 125 89 113 135 129 151 204 168 169 127 35 110 143 108 97 155 127 113 90 168 187 146 151 96 123 78 284 359 360 331 273 221 259 237 208
313 329 330 345 215 187 170 175 176 179 176 107 145 117 94 148 129 187 165 110 138 114 125 68 74 108 190 131 112 90 71 96 81 64 106 128 93 74 228 35 23 240 275 186 199 256 265
315 319 323 1 168 174 170 178 182 183 186 108 130 114 116 105 121 68 120 111 95 74 72 88 42 91 133 100 76 62 358 31 38 22 45 74 124 110 117 172 281 337 303 63 94 281 306
315 317 320 310 244 174 170 179 182 183 189 176 109 57 91 116 268 356 106 124 114 101 48 63 40 96 95 92 94 144 180 178 211 304 43 69 73 119 134 135 234 228 268 188 101 288 246
313 311 298 350 182 175 176 181 186 184 190 179 127 66 78 101 350 2 106 142 112 98 105 121 146 67 43 91 103 148 203 168 157 176 162 79 42 172 175 235 284 243 249 95 159 250 289
309 292 277 266 187 178 175 172 185 187 190 180 89 78 94 97 19 14 31 76 62 88 136 196 81 339 47 89 131 202 142 220 121 170 176 170 155 199 114 171 286 311 344 182 272 313 313
304 294 264 181 182 173 165 167 179 182 189 174 107 100 96 79 110 85 65 48 50 73 124 39 135 112 159 103 133 116 121 64 147 200 351 184 185 188 178 212 303 327 355 349 9 303 312